Regional Weather Roundup
Issued by NWS

Home | Current Version | Previous Version | Text Only | Print | Product List | Glossary Off
Versions: 1 2 3 4 5 6 7 8 9 10 11 12 13 14 15 16 17 18 19 20 21 22 23 24 25 26 27 28 29 30 31 32 33 34 35 36 37 38 39 40 41 42 43 44 45 46 47 48 49 50

000
ASUS43 KIND 210809
RWRIN

WEATHER ROUNDUP FOR INDIANA
NATIONAL WEATHER SERVICE INDIANAPOLIS IN
400 AM EDT MON MAY 21 2018

NOTE: "FAIR" INDICATES FEW OR NO CLOUDS BELOW 12,000 FEET WITH NO
SIGNIFICANT WEATHER AND/OR OBSTRUCTIONS TO VISIBILITY.

* - STATION DOES NOT REPORT WEATHER SUCH AS PRECIPITATION OR FOG.

+ - STATION NOT QUALITY CONTROLLED BY THE NATIONAL WEATHER SERVICE.
    USE DATA WITH CAUTION...ESPECIALLY DEWPOINT AND RELATIVE
    HUMIDITY OBSERVATIONS.

INZ001>003-010>013-019-020-210900-
NORTHWEST INDIANA

CITY           SKY/WX    TMP DP  RH WIND       PRES   REMARKS
GARY /AIRPORT/ CLOUDY    50  47  92 N3        30.15S
KNOX *+        FAIR      57  55  94 E3        30.13S
LA PORTE +     CLOUDY    57  56  97 E8        30.14S
MICHIGAN CITY+ CLOUDY    50  50 100 CALM      30.14F
MONTICELLO +   CLOUDY   N/A N/A N/A E5        30.11S
RENSSELAER +   MOCLDY    55  52  88 NE6       30.12S
VALPARAISO     MOCLDY    55  53  93 NE3       30.13F

$$

LMZ046-743>745-210900-
SOUTHERN LAKE MICHIGAN

STATION/POSITION TIME  TEMP    WIND        PRES    WAVE
                       AIR SEA DIR/SP/G            HT
                 (UTC) (F)     (DEG/KT/KT) (MB)    (FT)
BURNS HARBOR     0740   50      50/  4/  6 1021.0F
5NW MICH CITY    0800   52 53   70/  4/  6   N/A     2

$$

INZ004-005-014>016-021>024-210900-
NORTH CENTRAL INDIANA

CITY           SKY/WX    TMP DP  RH WIND       PRES   REMARKS
GOSHEN         CLOUDY    59  58  96 E5        30.15S FOG
LOGANSPORT +   CLOUDY    61  57  88 E8        30.13S
PERU/GRISSOM   CLOUDY    61  61 100 E9        30.11F
ROCHESTER +    FAIR      63  59  88 E8        30.13F
SOUTH BEND     CLOUDY    57  55  93 E7        30.16S
WARSAW +       CLOUDY    61  59  94 E7        30.14F

$$

INZ006>009-017-018-025>027-210900-
NORTHEAST INDIANA

CITY           SKY/WX    TMP DP  RH WIND       PRES   REMARKS
ANGOLA *+        N/A     57  55  94 E7        30.16F
AUBURN +       FAIR      57  55  94 E7        30.17F
FORT WAYNE     MOCLDY    59  56  89 E10       30.15F
HUNTINGTON +   MOCLDY    58  56  91 E6        30.15S
KENDALLVILLE +   N/A     58  55  87 E7        30.16F FOG

$$

INZ028-029-035-036-043>045-051>053-210900-
WEST CENTRAL INDIANA

CITY           SKY/WX    TMP DP  RH WIND       PRES   REMARKS
CRAWFORDSVL +  FAIR      64  64 100 NE7       30.08F
GREENCASTLE +  FAIR      64  63  94 CALM      30.09S
LAFAYETTE      FAIR      62  61  96 NE7       30.09F
TERRE HAUTE    FAIR      67  65  93 CALM      30.06F

$$

INZ030>032-037>040-046>048-054>057-064-065-210900-
CENTRAL INDIANA

CITY           SKY/WX    TMP DP  RH WIND       PRES   REMARKS
ANDERSON       MOCLDY    63  59  87 CALM      30.12S
FISHERS *+     MOCLDY   N/A N/A N/A E3        30.11R
FRANKFORT +    FAIR      66  62  87 E9        30.12S
GREENWOOD *+   FAIR      66  63  90 E5        30.10S
INDIANAPOLIS   FAIR      68  63  84 E6        30.09S
-EAGLE CREEK   FAIR      67  62  84 NE5       30.09S
MARION +       CLOUDY    60  57  89 E12       30.13F
MT COMFORT *+  FAIR      64  64 100 NE5       30.11
SHELBYVILLE    FAIR      68  63  84 E6        30.09R
ZIONSVILLE +   MOCLDY    64  62  94 E5        30.11S

$$

INZ033-034-041-042-049-050-058-059-210900-
EAST CENTRAL INDIANA

CITY           SKY/WX    TMP DP  RH WIND       PRES   REMARKS
MUNCIE         FAIR      62  58  86 E8        30.12F
RICHMOND +     FAIR      61  61 100 NE9       30.13S

$$

INZ060-061-067>069-081>083-085>088-210900-
SOUTHWEST INDIANA

CITY           SKY/WX    TMP DP  RH WIND       PRES   REMARKS
EVANSVILLE     FAIR      70  64  81 VRB5      30.05F
HUNTINGBURG +  FAIR      68  65  90 CALM      30.06S
WASHINGTON +   FAIR      69  61  76 CALM      30.06S

$$

INZ062-063-066-070>080-084-089>092-210900-
SOUTH CENTRAL AND SOUTHEAST INDIANA

CITY           SKY/WX    TMP DP  RH WIND       PRES   REMARKS
BATESVILLE +   CLOUDY    66  66 100 NE6       30.10S FOG
BEDFORD +      FAIR      68  63  83 CALM      30.07F
BLOOMINGTON    FAIR      69  66  90 CALM      30.07F
FRENCH LICK *+ FAIR      66  66 100 CALM      30.07F
MADISON *+     FAIR      68  64  88 CALM      30.10S
NORTH VERNON + FAIR      64  64 100 CALM      30.08S
SEYMOUR +      FAIR      68  66  94 CALM      30.07S

$$




USA.gov is the U.S. government's official web portal to all federal, state and local government web resources and services.